Regional Weather Roundup
Issued by NWS

Home | Current Version | Previous Version | Text Only | Print | Product List | Glossary Off
Versions: 1 2 3 4 5 6 7 8 9 10 11 12 13 14 15 16 17 18 19 20 21 22 23 24 25 26 27 28 29 30 31 32 33 34 35 36 37 38 39 40 41 42 43 44 45 46 47 48 49 50

000
ASUS43 KLOT 281121
RWRIL

ILLINOIS REGIONAL WEATHER ROUNDUP
NATIONAL WEATHER SERVICE CHICAGO/ROMEOVILLE IL
600 AM CDT TUE APR 28 2015

NOTE: "FAIR" INDICATES FEW OR NO CLOUDS BELOW 12,000 FEET WITH NO
SIGNIFICANT WEATHER AND/OR OBSTRUCTIONS TO VISIBILITY.

* THESE STATIONS ARE NOT UNDER NWS QUALITY CONTROL. THEY ALSO MAY NOT
  REPORT WEATHER SUCH AS PRECIPITATION OR FOG.

ILZ001-002-007-009-015-016-024-281200-
NORTHWEST ILLINOIS

CITY           SKY/WX    TMP DP  RH WIND       PRES   REMARKS
MOLINE         CLEAR     39  35  86 SE3       30.14F
STERLING*      CLEAR     36  30  80 E5        30.16S WCI  32
SAVANNA*       CLEAR     39  35  85 SE5       30.14F
$$

ILZ003-004-008-010-011-017-018-281200-
NORTH CENTRAL ILLINOIS

CITY           SKY/WX    TMP DP  RH WIND       PRES   REMARKS
ROCKFORD       PTCLDY    36  32  85 CALM      30.18S
FREEPORT*      CLEAR     29  27  93 E3        30.17S
ROCHELLE*      CLEAR     31  30  94 CALM      30.17R
DE KALB*       CLEAR     34  32  91 NW3       30.17R
PERU*          CLEAR     40  35  84 CALM      30.16F
$$

ILZ005-006-012>014-019>023-281200-
NORTHEAST ILLINOIS

CITY           SKY/WX    TMP DP  RH WIND       PRES   REMARKS
CHICAGO-OHARE  PTCLDY    37  33  85 CALM      30.15R
CHICAGO-MIDWAY PTCLDY    39  33  79 W3        30.16R
AURORA         CLEAR     31  28  89 W5        30.17R WCI  26
LANSING*       CLEAR     33  32  93 CALM      30.17R
JOLIET*        CLEAR     35  34  94 CALM      30.17R
WAUKEGAN       CLEAR     31  30  96 CALM      30.15R
DUPAGE AIRPORT FAIR      34  31  88 W6        30.15R WCI  29
KANKAKEE*      CLEAR     33  33  96 CALM      30.17S FOG
WHEELING       CLEAR     35  31  85 CALM      30.17R
MORRIS*        CLEAR     35  32  90 CALM      30.13F
ROMEOVILLE*    CLEAR     37  32  85 CALM      30.16R
NORTHERLY ISL    N/A     42  34  73 CALM        N/A
$$

LMZ740>746-281200-
SOUTHERN LAKE MICHIGAN

STATION/POSITION SKY/WX   TEMP    WIND        PRES    VSBY  WAVE
                          AIR SEA DIR/SP/G                  HT/PER
                          (F)     (DEG/KT/KT) (MB)    (MI)  (FT/S)
HARRISON CRIB              41     340/  6/  6   N/A
BURNHAM HARBOR             43     340/  3/  3   N/A
CALUMET HARBOR             40     160/  1/  3   N/A
BURNS HARBOR               42     320/  5/  7 1021.3R
MICHIGAN CITY              40     260/  5/  6   N/A
MICHIGAN CITY 6N           40 46  300/  4/  6   N/A           2/ 4
$$

ILZ025>027-034>036-040-047-049-050-058-095>099-281200-
WEST-CENTRAL ILLINOIS

CITY           SKY/WX    TMP DP  RH WIND       PRES   REMARKS
QUINCY         CLEAR     43  36  76 CALM      30.13F
GALESBURG*     CLEAR     37  35  94 CALM      30.14F
MACOMB*        CLEAR     37  35  92 CALM      30.17S
JACKSONVILLE*  CLEAR     38  36  90 W3        30.15S
PITTSFIELD*    CLEAR     40  37  87 CALM      30.15S
$$

ILZ028>032-037-038-041>044-048-051>054-059>061-281200-
CENTRAL ILLINOIS

CITY           SKY/WX    TMP DP  RH WIND       PRES   REMARKS
PONTIAC        CLEAR     34  32  92 CALM      30.18R
BLOOMINGTON    CLEAR     36  33  88 NE7       30.17R WCI  30
DECATUR        CLEAR     37  32  82 N5        30.15R WCI  33
PEORIA         CLEAR     39  34  82 E5        30.16S
LACON*         CLEAR     35  33  91 CALM      30.16S
LINCOLN*       CLEAR     38  34  88 N3        30.17S
SPRINGFIELD    CLEAR     37  33  85 N6        30.15S WCI  32
TAYLORVILLE    CLEAR     37  32  81 NE6       30.14R WCI  33
$$

ILZ033-039-045-046-055>057-062-063-281200-
EAST-CENTRAL ILLINOIS

CITY           SKY/WX    TMP DP  RH WIND       PRES   REMARKS
CHAMPAIGN      CLEAR     40  34  79 NE8       30.14S
DANVILLE*      CLEAR     34  32  92 N9        30.13S WCI  27
RANTOUL*       CLEAR     38  34  84 NE7       30.15S WCI  33
MATTOON        CLEAR     35  32  88 N5        30.13R WCI  31
PARIS*         CLEAR     38  35  90 N6        30.15R WCI  33
$$

ILZ079-100>102-281200-
SOUTHWEST ILLINOIS

CITY           SKY/WX    TMP DP  RH WIND       PRES   REMARKS
ALTON          CLEAR     40  38  91 CALM      30.14R
BELLEVILLE     CLEAR     42  41  97 N6        30.11R
CAHOKIA*       CLEAR     40  39  97 CALM      30.12R
SPARTA*        CLEAR     39  37  91 N5        30.11R
$$

ILZ064>066-069>071-074>076-080>082-084>086-088>090-092>094-281200-
SOUTH-CENTRAL ILLINOIS

CITY           SKY/WX    TMP DP  RH WIND       PRES   REMARKS
CARBONDALE     CLEAR     44  36  73 N7        30.08S
CAIRO*         CLEAR     46  39  75 N8        30.05R
EFFINGHAM*     CLEAR     40  33  76 CALM      30.14R
MARION         FAIR      41  37  87 N6        30.09R
MT. VERNON     CLEAR     41  34  75 N7        30.11R
CENTRALIA*     CLEAR     40  35  83 NE3       30.10S
SALEM*         CLEAR     43  36  77 NE6       30.12R
METROPOLIS*    CLEAR     44  40  87 N5        30.04R
$$

ILZ067-068-072-073-078-083-087-091-281200-
SOUTHEAST ILLINOIS

CITY           SKY/WX    TMP DP  RH WIND       PRES   REMARKS
LAWRENCEVILLE  CLEAR     42  37  82 NE8       30.11R
FLORA*         CLEAR     39  36  89 N7        30.12R WCI  34
FAIRFIELD*     CLEAR     41  37  86 N7        30.09S
HARRISBURG*    CLEAR     43  38  80 N7        30.10R
ROBINSON*      CLEAR     38  36  94 N5        30.14R WCI  34
CARMI*         CLEAR     40  35  80 N6        30.09R
$$

ABBREVIATIONS USED IN REMARKS
   TC - TEMPERATURE IN CELSIUS
  WCI - WIND CHILL INDEX
   HX - HEAT INDEX
  VSB - VISIBILITY
$$



USA.gov is the U.S. government's official web portal to all federal, state and local government web resources and services.